Location: Hauppauge
(40.8260°N, 73.2030°W)
Time: 09:07:59
(UTC-04:00)

Daily predictions for brighter satellites

Satellite Brightness Start Highest point End
(mag) Time Altitude Azimuth Time Altitude Azimuth Time Altitude Azimuth
COSMOS 2406 4.1 20:37:38 10° N 20:42:56 36° ENE 20:48:10 10° SE
SPOT 5 4.2 20:41:17 10° ESE 20:45:39 28° ENE 20:50:08 10° N
ERS-1 Rocket 3.1 20:44:11 10° SSE 20:49:08 59° ENE 20:54:06 10° N
SJ-11-01 4.5 20:44:55 10° SSE 20:49:35 59° ENE 20:54:16 10° N
Cosmos 1869 Rocket 4.3 20:46:15 10° SSW 20:50:36 59° W 20:54:56 10° N
H-2A R/B 2.8 20:47:55 10° SE 20:51:55 37° ENE 20:55:51 10° N
Cosmos 1356 Rocket 3.8 20:49:24 10° SSE 20:53:24 45° E 20:57:30 10° NNE
ALOS 3.3 20:51:56 10° S 20:56:25 47° W 21:00:56 10° NNW
Resurs 01 Rocket 4.4 20:54:07 10° SW 20:56:52 16° W 20:59:39 10° NW
ATLAS 5 CENTAUR R/B 2.8 20:53:23 10° NNW 20:59:13 52° NE 21:05:21 10° SE
USA 234 4.2 20:59:54 10° ENE 21:04:53 23° ESE 21:09:50 10° S
Cosmos 2278 Rocket 3.7 21:02:01 10° SE 21:05:12 15° E 21:08:23 10° ENE
Sich 1 Rocket 4.4 21:06:01 10° SSE 21:10:07 33° E 21:14:14 10° NNE
PSLV R/B 3.3 21:07:17 10° W 21:10:44 84° S 21:13:55 12° ESE
Meteor 2-3 Rocket 4.0 21:07:14 10° SSW 21:12:50 71° W 21:18:26 10° N
Okean 1-7 4.3 21:09:31 10° NNW 21:13:35 42° W 21:17:39 10° SSW
Abrixas rocket 2.7 21:10:58 10° WNW 21:14:19 54° SW 21:16:54 15° SE
CZ-4 DEB 4.2 21:13:26 10° SSW 21:16:24 37° W 21:19:23 10° NNW
Cosmos 1844 Rocket 3.0 21:13:16 10° S 21:18:33 43° ESE 21:23:52 10° NE
Cosmos 2056 Rocket 3.4 21:13:40 10° S 21:18:47 64° ESE 21:23:52 10° NNE
Meteor 1-27 Rocket 4.3 21:14:49 10° N 21:20:04 39° ENE 21:24:15 15° SE
Cosmos 1371 Rocket 4.1 21:15:24 10° SSW 21:20:44 89° WNW 21:26:04 10° NNE
Cosmos 1674 Rocket 3.7 21:16:37 10° N 21:21:02 56° E 21:24:52 13° SSE
Cosmos 1825 3.6 21:19:37 16° ESE 21:21:18 21° E 21:24:12 10° NE
Cosmos 1340 Rocket 3.8 21:19:08 10° SSW 21:22:59 49° WNW 21:26:55 10° N
Cosmos 2082 Rocket 4.4 21:21:25 10° NNE 21:23:23 12° NE 21:25:21 10° ENE
Cosmos 1939 Rocket 2.9 21:21:55 10° S 21:25:45 76° WSW 21:29:39 10° NNW
Cosmos 1461 4.2 21:21:45 10° SW 21:26:17 49° NW 21:30:43 10° NNE
Atlas Centaur 2 2.8 21:26:27 10° SSW 21:28:46 16° S 21:29:21 16° SSE
Cosmos 1782 2.8 21:25:39 10° N 21:29:40 68° E 21:32:54 15° SSE
Cosmos 1184 Rocket 4.5 21:30:38 17° E 21:30:56 17° E 21:33:12 10° NE
Cosmos 2263 Rocket 4.1 21:28:25 10° WSW 21:33:29 33° WNW 21:38:33 10° N
CENTAUR R/B 3.3 21:28:25 10° NW 21:36:18 75° WSW 21:43:29 15° SSE
COSMOS 2487 4.3 21:35:49 10° NNE 21:38:27 19° ENE 21:39:40 16° E
MetOp-A 4.1 21:35:01 16° SSE 21:39:22 71° ENE 21:44:42 10° N
Cosmos 2154 Rocket 4.0 21:33:40 10° S 21:39:46 60° E 21:45:52 10° NNE
SL-27 R/B 2.5 21:36:51 10° NNW 21:40:32 77° ENE 21:42:35 24° SSE
YAOGAN 6 2.7 21:40:07 25° SE 21:41:57 55° ENE 21:45:24 10° N
Cosmos 1408 3.2 21:40:58 25° SE 21:42:25 36° E 21:45:48 10° NNE
SL-8 R/B 3.7 21:37:43 10° WSW 21:42:33 90° E 21:47:23 10° ENE
NOSS 2-2 (D) 3.8 21:40:12 10° SW 21:44:17 74° NW 21:49:04 10° NNE
Coronas F rocket 3.6 21:42:56 10° SW 21:45:12 25° WNW 21:47:28 10° NNW
deb Chang Zheng 4 4.4 21:43:31 10° N 21:47:50 54° WNW 21:52:08 10° SSW
COS B Rocket 3.3 21:43:56 10° N 21:48:13 78° E 21:50:52 20° S
Cosmos 1975 Rocket 3.8 21:44:38 10° N 21:48:36 34° ENE 21:50:14 26° ESE
SL-08 RB Rocket 4.4 21:46:49 23° ESE 21:49:03 39° ENE 21:53:20 10° N
Cosmos 1606 2.7 21:48:20 10° N 21:52:17 75° E 21:54:20 27° SSE
Okean 3 3.8 21:51:45 10° N 21:55:56 49° E 21:57:39 31° SE
Cosmos 1908 Rocket 3.5 21:53:55 14° S 21:57:36 87° E 22:02:03 10° N
H-2A R/B 3.1 21:56:03 22° ESE 21:58:33 33° ENE 22:03:17 10° N
Envisat 3.9 21:54:11 10° S 21:59:01 45° W 22:03:54 10° NNW
NOSS 2-2 (C) 4.4 21:55:00 10° SW 21:59:02 53° NW 22:03:45 10° NNE
USA 245 2.7 21:58:30 46° SE 21:59:13 66° ENE 22:02:43 10° N
STPSAT 2 (USA 217) 4.5 21:57:45 12° S 22:01:47 67° ESE 22:06:16 10° NNE
Cosmos 1242 Rocket 3.5 21:59:30 10° NNE 22:02:47 30° ENE 22:03:15 29° E
Cosmos 1378 Rocket 3.4 22:01:43 10° N 22:06:03 86° E 22:08:06 31° S
CZ-4 SHROUD 4.1 22:08:16 27° SSW 22:09:30 42° W 22:12:29 10° NNW
TIMED 4.4 22:06:09 15° SSW 22:09:47 85° ESE 22:14:10 10° NNE
Intercosmos 25 3.3 22:12:07 44° SE 22:12:51 52° E 22:16:02 10° NNE
SPOT 1/Viking Rocket 3.5 22:10:27 27° SSE 22:13:25 85° WSW 22:18:39 10° NNW
ERBS 3.2 22:12:48 10° WNW 22:16:02 37° SW 22:16:36 34° SSW
Cosmos 407 Rocket 3.9 22:13:47 10° NNW 22:18:57 59° WSW 22:21:52 26° S
Cosmos 1238 Rocket 2.6 22:18:14 10° NNW 22:21:18 63° W 22:21:59 48° SSW
Cosmos 1452 Rocket 3.6 22:16:49 10° SSW 22:22:05 80° WNW 22:27:24 10° NNE
Landsat 7 3.9 22:21:42 40° SE 22:23:13 62° ENE 22:27:56 10° N
SPOT 5 4.2 22:19:21 14° SSW 22:23:29 38° W 22:28:27 10° NNW
H-2A R/B 4.4 22:24:54 10° SW 22:28:01 19° W 22:31:06 10° NW
Cosmos 2084 3.0 22:32:18 69° SSE 22:32:37 75° ESE 22:36:27 10° NE
BREEZE-M TANK 4.1 22:18:33 10° W 22:32:42 59° N 22:35:56 14° ENE
Spot 4 4.4 22:34:20 38° ESE 22:35:21 44° ENE 22:39:57 10° N
Cosmos 614 Rocket 4.4 22:30:25 10° N 22:35:21 47° ENE 22:36:32 39° ESE
Cosmos 2218 Rocket 4.1 22:32:39 34° SSE 22:35:26 64° E 22:41:47 10° NNE
Cosmos 1140 Rocket 3.4 22:31:01 10° NNW 22:36:10 75° ENE 22:37:36 48° SE
Terra 1.9 22:37:58 49° SE 22:38:59 63° ENE 22:43:42 10° N
ARGOS 3.6 22:38:34 29° SSW 22:41:09 55° W 22:46:25 10° NNW
DMSP B5D2-2 4.1 22:36:49 10° NNE 22:41:59 61° E 22:43:07 49° SSE
DELTA 2 DEB (DPAF) 4.1 22:42:45 55° S 22:43:42 82° WSW 22:48:12 10° NNW
ATLAS 5 CENTAUR R/B 3.7 22:38:32 10° NW 22:43:47 30° WSW 22:46:55 20° SSW
Okean 2 Rocket 3.5 22:42:45 32° SSW 22:44:38 59° W 22:49:00 10° N
USA 234 3.2 22:41:49 10° NE 22:48:24 90° SW 22:54:55 10° SW
Cosmos 2278 Rocket 2.4 22:43:31 13° SSW 22:48:35 71° WNW 22:54:17 10° NNE
Cosmos 1727 Rocket 4.0 22:47:37 10° N 22:53:47 65° E 22:55:26 47° SE
CZ-4C R/B 3.5 22:54:26 57° WSW 22:54:36 58° W 22:58:31 10° NNW
Cosmos 1833 Rocket 3.4 22:50:40 10° N 22:56:00 42° ENE 22:57:19 36° E
Cosmos 1850 Rocket 3.9 22:50:59 10° NNW 22:56:19 85° ENE 22:57:23 59° SSE
Cosmos 1825 4.3 22:54:31 14° WSW 22:56:48 23° WNW 22:59:55 10° NNW
Cosmos 1959 Rocket 4.4 22:58:48 37° SSW 23:01:26 80° W 23:07:34 10° N
Timation 2 Rocket 3.8 22:57:50 10° NNW 23:03:52 82° WSW 23:05:20 54° SSE
Cosmos 1812 3.7 23:01:54 10° N 23:04:51 39° NE 23:04:51 39° NE
Cosmos 2082 Rocket 2.2 23:02:54 10° NNW 23:08:37 67° ENE 23:09:37 56° ESE
COSMOS 2487 4.3 23:11:01 10° NW 23:13:44 25° W 23:13:44 25° W
Cosmos 1741 Rocket 4.0 23:08:59 10° NNW 23:14:11 69° WSW 23:14:51 61° SSW
IGS 5A 4.0 23:17:59 52° W 23:17:59 52° W 23:21:59 10° NNW
Cosmos 2297 3.7 23:16:56 44° SW 23:18:49 79° WNW 23:24:35 10° NNE
DNEPR-1 R/B 3.8 23:15:18 10° NW 23:20:37 68° WSW 23:20:38 68° WSW
APEX 4.0 23:22:47 52° WNW 23:23:04 54° WNW 23:27:49 10° NNE
Cosmos 1339 Rocket 4.4 23:17:58 10° N 23:24:06 88° W 23:25:21 60° S
Cosmos 1821 Rocket 4.4 23:31:30 45° E 23:31:52 46° E 23:37:48 10° NNE
Cosmos 1331 Rocket 4.2 23:33:49 56° ENE 23:33:49 56° ENE 23:38:16 10° NNE
USA 229 DEB 3.7 23:26:52 10° NNW 23:34:00 79° NE 23:35:48 54° SE
USA 229 3.8 23:26:58 10° NNW 23:34:06 79° NE 23:35:55 54° SE
Cosmos 1110 Rocket 3.9 23:36:09 73° ENE 23:36:09 73° ENE 23:41:06 10° NNE
CZ-4B R/B 4.3 23:38:42 10° NE 23:38:42 10° NE 23:38:47 10° NE
H-2A R/B 3.3 23:36:42 30° WSW 23:37:53 33° W 23:42:42 10° NNW
Cosmos 1536 Rocket 4.4 23:34:55 10° NNW 23:39:02 43° W 23:39:02 43° W
Okean 1 4.1 23:35:36 10° N 23:38:43 51° NNW 23:38:43 51° NNW
Iridium 4 Rocket 3.8 23:43:37 10° N 23:49:24 65° E 23:49:35 64° E
Cosmos 1934 Rocket 4.1 23:52:21 55° E 23:52:23 55° E 23:58:16 10° NNE
